Wind_Speed
31 33 34 34 36 37 37 37 39 43 43 41 38 35 33 34 32 31 32 32 30 26 21 25 26 28 30 28 30 32 35 38 38 36 34 34 33 32
34 35 35 35 34 34 34 33 33 35 38 38 34 31 32 35 33 30 29 25 23 20 24 26 27 31 31 29 27 27 29 30 31 32 33 34 35 36
33 33 32 29 30 31 31 32 33 33 33 33 30 30 31 33 31 27 29 28 25 24 27 28 28 25 24 25 27 29 30 31 33 35 35 35 35 36
31 29 28 28 30 30 31 32 32 29 29 27 28 28 30 32 32 29 32 34 26 26 21 23 23 25 27 27 29 30 27 24 24 26 28 28 29 30
27 25 25 26 26 25 28 28 26 25 27 28 27 27 29 29 30 28 31 25 25 23 25 25 27 27 28 24 19 19 21 22 24 26 27 28 29 30
21 19 19 18 20 20 21 20 19 21 23 23 22 21 26 29 31 26 25 26 23 25 27 28 28 21 16 17 18 19 20 22 23 25 26 28 29 29
13 11 10 8 7 8 10 11 13 16 18 18 18 19 21 23 23 25 25 27 29 30 30 23 15 15 16 17 19 20 21 23 25 25 25 25 26 26
2 1 7 8 10 12 15 17 19 21 23 24 25 26 25 25 26 30 33 33 32 29 19 15 15 17 18 19 20 22 24 26 26 26 25 25 25 25
4 6 8 10 13 14 16 18 20 22 24 25 26 27 29 30 31 32 30 28 25 15 16 19 16 19 19 21 21 23 25 26 28 28 27 26 25 25
6 9 10 12 14 16 18 20 21 22 23 25 26 26 27 28 28 26 23 17 16 17 16 17 20 19 20 21 21 23 25 28 30 30 28 27 27 27
9 11 13 14 16 18 19 21 22 23 24 24 24 24 24 23 19 16 15 17 19 20 20 19 20 18 20 21 21 24 28 31 32 31 31 30 30 29
12 14 15 16 17 18 20 21 23 23 24 24 23 22 20 16 15 16 19 21 22 23 24 22 21 21 17 20 21 24 29 33 35 34 32 33 32 32
14 15 16 17 18 18 20 21 22 23 23 22 21 20 18 17 18 20 22 24 25 26 27 26 22 24 22 21 19 23 28 31 34 34 33 34 33 34
15 16 17 17 18 18 19 20 21 22 22 22 21 20 20 21 22 24 25 26 27 28 28 28 25 26 27 26 25 21 26 29 30 32 32 32 32 34
16 16 17 18 18 19 20 21 21 22 22 23 24 24 24 25 26 27 28 28 27 27 29 28 28 28 28 29 30 26 29 24 26 30 29 30 31 31
16 17 17 17 18 19 20 21 22 22 23 24 25 26 26 27 29 30 30 30 28 27 30 30 29 30 30 30 30 28 27 29 27 29 29 28 29 29
17 18 18 18 19 21 22 22 23 23 24 25 26 27 28 29 30 30 30 28 27 26 26 28 30 32 33 33 29 28 26 27 30 31 31 30 26 26
18 18 19 20 21 22 23 24 24 25 26 27 27 28 29 29 29 29 29 26 25 25 25 27 29 31 32 29 31 27 27 29 30 30 31 31 26 24
18 19 20 21 23 24 25 25 26 27 27 28 29 30 29 28 27 26 25 24 24 24 25 27 29 31 29 26 22 24 29 29 30 29 30 31 31 28
19 20 21 23 25 27 27 27 27 28 28 29 30 30 30 27 25 24 23 23 23 24 24 26 28 29 29 29 25 17 25 29 31 31 31 31 33 31
20 22 24 26 27 28 28 28 27 28 29 29 30 30 29 26 23 22 22 23 24 24 23 23 26 28 27 29 28 24 21 25 30 34 34 35 35 33
22 24 26 28 30 30 28 28 28 29 30 30 30 29 28 26 24 23 23 24 25 26 25 25 25 27 28 31 31 31 27 25 27 31 33 35 39 39
25 26 28 30 32 31 29 28 29 28 29 30 30 29 29 26 26 25 25 27 27 27 28 26 27 28 29 31 34 34 33 32 32 31 27 30 34 36
Wind_Direction
281 282 284 287 289 288 288 288 290 293 295 297 294 292 287 291 291 303 304 288 277 299 279 280 277 277 278 277 275 275 274 277 279 280 279 279 279 278
281 284 286 287 289 290 291 293 293 293 293 295 295 289 286 289 294 296 301 293 285 284 283 286 283 278 278 278 279 279 276 275 276 279 279 280 280 279
283 282 283 288 293 293 292 294 298 296 293 290 287 285 289 291 295 291 288 302 281 287 292 286 277 276 277 278 279 277 277 281 281 281 283 284 284 283
278 279 287 292 294 293 292 295 297 294 291 287 287 284 285 289 298 293 288 301 280 287 282 278 278 276 276 275 277 280 283 284 289 292 293 293 292 289
280 289 293 297 296 294 296 296 293 293 293 291 287 287 289 289 292 297 293 281 291 289 285 282 280 281 282 282 279 282 286 289 290 292 292 291 291 291
288 293 300 300 297 302 299 297 294 300 301 297 295 292 292 290 294 287 285 286 284 284 285 283 283 276 270 273 278 283 287 290 292 293 296 298 299 298
292 301 309 321 337 328 327 319 308 305 307 312 314 305 296 289 287 284 283 286 291 293 291 285 269 275 281 284 287 289 292 296 297 299 302 301 299 295
282 296 305 319 322 320 317 313 310 309 308 305 300 294 291 288 283 279 282 287 290 288 276 271 279 280 281 287 296 296 294 293 297 304 306 305 300 295
284 296 308 315 313 312 314 315 315 312 306 302 300 297 293 288 284 283 284 283 278 262 265 274 274 282 290 293 293 292 295 300 305 308 309 306 302 298
291 301 306 310 312 316 318 318 316 314 313 311 307 302 296 291 287 285 281 267 260 263 263 270 281 284 288 292 294 296 299 301 303 304 306 305 303 298
293 298 304 311 315 317 320 321 321 320 317 313 310 307 302 297 288 273 264 262 264 268 269 270 273 277 283 289 294 297 298 300 300 302 305 304 303 301
293 300 309 312 315 319 319 321 322 321 320 319 316 313 308 297 283 275 273 272 272 273 276 276 276 279 276 281 288 293 297 298 301 303 303 302 301 301
298 305 308 312 316 317 319 321 322 321 320 320 318 313 305 293 285 282 279 277 277 278 278 276 274 278 279 277 278 284 287 289 293 297 299 298 299 299
301 304 307 311 315 317 320 320 321 321 322 321 319 312 303 296 292 290 287 283 281 281 279 282 285 285 286 288 289 288 287 290 291 291 293 294 295 297
301 305 309 313 315 318 318 320 322 323 324 323 319 313 305 299 296 293 290 287 285 284 283 284 285 286 290 295 298 304 299 294 290 291 293 295 295 298
305 307 309 312 314 314 316 319 320 321 321 320 316 311 306 301 298 295 294 293 293 289 288 288 290 291 293 297 301 306 302 302 298 298 299 301 300 302
306 309 311 313 315 316 318 318 318 319 318 317 314 311 307 303 300 298 296 296 295 291 290 293 295 296 298 301 303 303 302 302 302 303 304 303 305 305
305 308 310 313 314 315 316 315 315 316 317 317 316 312 308 306 302 300 299 300 297 295 293 292 292 292 296 301 304 305 302 299 297 300 303 304 309 314
304 307 310 313 314 314 313 313 314 315 317 317 316 313 310 307 303 300 300 300 298 297 298 297 295 295 296 298 298 301 297 296 297 301 307 309 314 315
303 307 310 313 316 315 313 311 313 315 316 316 315 313 310 307 302 299 299 298 298 298 299 299 297 297 300 300 302 303 297 300 302 306 308 308 309 306
300 305 307 312 318 318 313 310 311 313 315 315 314 312 308 305 298 294 294 294 296 298 299 297 294 296 298 299 303 306 304 302 305 306 308 307 306 306
296 300 305 311 317 318 312 309 310 312 313 314 313 309 305 301 294 290 290 292 294 297 299 299 296 296 299 301 302 305 307 305 303 302 304 307 309 309
293 298 303 309 314 314 309 308 308 310 311 311 310 307 302 297 292 290 290 290 292 293 294 294 294 294 297 299 301 305 308 308 304 297 301 302 302 304
Height
3105 3104 3102 3100 3099 3097 3095 3093 3090 3085 3083 3082 3081 3080 3079 3077 3075 3074 3071 3069 3069 3068 3066 3066 3064 3064 3063 3062 3062 3063 3062 3063 3063 3062 3062 3061 3061 3062
3097 3095 3094 3092 3090 3089 3086 3084 3082 3079 3075 3073 3072 3071 3070 3068 3067 3068 3065 3064 3061 3059 3061 3060 3060 3058 3057 3056 3055 3055 3055 3055 3054 3054 3054 3053 3053 3052
3090 3088 3087 3085 3082 3080 3079 3077 3074 3071 3068 3065 3064 3063 3062 3060 3059 3059 3058 3057 3057 3055 3054 3053 3052 3052 3051 3050 3049 3048 3048 3047 3046 3045 3044 3043 3043 3041
3084 3082 3079 3077 3075 3074 3072 3069 3067 3065 3063 3060 3058 3057 3056 3054 3053 3052 3052 3050 3049 3049 3047 3047 3047 3046 3044 3042 3042 3041 3040 3038 3037 3036 3036 3035 3034 3032
3077 3074 3072 3070 3068 3067 3065 3063 3061 3060 3058 3055 3052 3051 3049 3048 3046 3044 3043 3042 3042 3042 3041 3040 3040 3037 3036 3034 3034 3033 3033 3032 3031 3030 3029 3028 3027 3024
3070 3067 3066 3064 3063 3061 3059 3058 3057 3055 3052 3049 3046 3045 3043 3042 3040 3039 3039 3038 3037 3036 3034 3033 3032 3030 3030 3030 3029 3029 3027 3025 3025 3024 3022 3020 3017 3015
3064 3063 3062 3061 3059 3059 3057 3055 3053 3051 3048 3045 3042 3040 3038 3036 3035 3034 3033 3031 3030 3028 3026 3025 3024 3025 3024 3023 3022 3021 3020 3018 3017 3015 3013 3012 3010 3008
3060 3060 3060 3059 3058 3056 3054 3051 3049 3046 3043 3040 3038 3037 3035 3032 3030 3029 3026 3024 3021 3021 3019 3019 3019 3018 3018 3016 3015 3013 3012 3011 3010 3008 3007 3004 3002 3001
3059 3059 3058 3056 3055 3053 3050 3047 3044 3041 3038 3035 3032 3030 3027 3025 3023 3020 3018 3015 3014 3014 3014 3013 3014 3012 3010 3009 3008 3007 3005 3003 3001 3000 2999 2997 2995 2993
3057 3056 3055 3053 3051 3049 3046 3043 3040 3037 3033 3029 3026 3023 3020 3017 3015 3012 3011 3010 3010 3010 3011 3010 3008 3007 3005 3004 3003 3000 2997 2995 2994 2993 2991 2989 2987 2985
3055 3054 3052 3049 3047 3044 3041 3038 3035 3031 3028 3024 3021 3018 3015 3012 3009 3007 3006 3006 3006 3005 3005 3005 3003 3002 3000 2998 2996 2993 2990 2988 2987 2985 2982 2980 2978 2975
3052 3050 3047 3045 3042 3039 3036 3033 3030 3027 3023 3020 3016 3013 3010 3008 3006 3005 3004 3003 3002 3001 3000 3000 2998 2996 2996 2993 2990 2987 2984 2980 2978 2975 2974 2971 2969 2966
3047 3045 3043 3041 3037 3035 3032 3029 3026 3023 3019 3016 3013 3010 3007 3006 3004 3003 3001 2999 2997 2995 2992 2992 2992 2989 2988 2988 2987 2983 2980 2976 2972 2969 2965 2963 2961 2957
3043 3041 3038 3036 3033 3030 3028 3025 3022 3019 3015 3012 3009 3006 3004 3001 2999 2998 2996 2994 2992 2989 2986 2984 2984 2982 2980 2979 2978 2978 2974 2970 2966 2962 2959 2956 2954 2950
3039 3036 3034 3031 3028 3026 3023 3021 3018 3014 3011 3007 3004 3001 2998 2996 2993 2991 2989 2986 2985 2982 2979 2977 2976 2973 2971 2970 2967 2967 2962 2962 2959 2954 2951 2948 2945 2941
3034 3032 3029 3027 3025 3022 3019 3016 3013 3009 3006 3002 2999 2995 2992 2990 2987 2984 2981 2979 2978 2975 2971 2969 2968 2966 2964 2962 2959 2957 2955 2949 2949 2946 2942 2940 2937 2933
3029 3027 3025 3023 3020 3017 3014 3011 3008 3004 3001 2997 2993 2990 2987 2983 2979 2976 2973 2972 2970 2968 2966 2962 2959 2957 2955 2953 2952 2949 2947 2944 2939 2936 2933 2930 2929 2924
3025 3023 3020 3018 3015 3013 3009 3006 3002 2998 2995 2991 2987 2984 2980 2976 2972 2968 2965 2964 2963 2961 2959 2957 2954 2951 2949 2948 2943 2942 2939 2935 2933 2929 2925 2920 2919 2917
3020 3018 3015 3013 3010 3007 3004 3000 2996 2992 2988 2984 2980 2977 2972 2969 2965 2962 2959 2957 2956 2954 2952 2949 2946 2942 2941 2940 2941 2936 2931 2929 2924 2922 2917 2913 2909 2908
3015 3013 3010 3007 3004 3001 2997 2993 2989 2985 2981 2977 2973 2969 2965 2962 2958 2955 2953 2951 2949 2948 2946 2942 2938 2935 2933 2931 2930 2933 2926 2921 2916 2913 2910 2906 2902 2899
3010 3007 3005 3002 2998 2994 2991 2987 2982 2978 2974 2970 2966 2962 2958 2955 2952 2949 2947 2945 2942 2940 2939 2937 2933 2929 2926 2923 2921 2922 2921 2916 2910 2904 2901 2897 2893 2890
3004 3001 2999 2996 2992 2988 2984 2980 2976 2971 2967 2963 2960 2956 2952 2948 2946 2943 2941 2939 2936 2934 2932 2930 2927 2923 2920 2916 2913 2911 2911 2909 2905 2899 2895 2888 2881 2877
2997 2994 2991 2988 2985 2981 2977 2973 2969 2964 2960 2956 2952 2949 2945 2941 2938 2936 2934 2932 2929 2927 2924 2922 2919 2916 2913 2909 2905 2902 2901 2898 2895 2893 2891 2883 2877 2871